Zurück zum Katalog

ATLAS D DEB

AktivLEO
NORAD 2337·DEBRIS·🇺🇸 United States

Gestartet Jul 14, 1966 von Vandenberg Space Force Base

Loading…

Nächste Überflüge (nächste 24 Stunden)

TLE

AktuellSource: Space-Track

Epoche: Sep 14, 2026, 14:13 UTC

1 02337U 66063E   26257.59287647  .00000344  00000-0  10363-3 0  9993
2 02337 144.2320 265.7939 0006301 277.1614 220.3712 13.72307799 14349

Verfolge ATLAS D DEB in Echtzeit mit AllMySat

Download on the App Store